TIANLIAN 2-01 1 44076U 19017A 21063.85254035 -.00000147 00000-0 00000-0 0 9996 2 44076 1.3852 283.8661 0029225 219.5334 46.3176 1.00270482 7258 CZ-3B R/B 1 44077U 19017B 21063.51305992 .00035958 16312-6 72785-3 0 9997 2 44077 26.7006 124.0786 6978128 318.0217 5.8174 2.72432391 17754